Dewpoint
12 10 13 16 18 17 18 17 15 17 16 14 13 13 14 15 15 15 14 13 10 9 10 10 11 11 9 8 8 9 12 12 13 13 13 13 12 13 11 11 10 13 12 6 8 12 11 7 7
12 11 16 17 18 19 18 16 17 16 15 13 14 15 15 16 15 15 14 13 9 8 10 9 13 9 8 8 12 12 12 13 12 14 13 12 13 12 10 11 12 13 12 11 8 9 9 8 6
13 15 17 17 18 18 18 16 16 16 15 13 15 15 15 15 15 14 13 12 9 10 10 7 13 8 8 12 12 8 12 13 12 13 13 14 14 13 11 11 12 13 12 12 8 13 13 13 12
16 17 17 18 18 17 17 17 16 16 16 14 15 15 15 15 15 13 13 11 7 10 8 7 13 7 8 13 13 9 13 13 14 14 14 13 12 12 12 12 13 12 11 11 10 10 13 13 12
17 17 18 18 17 16 17 16 16 15 15 15 14 15 15 15 14 13 13 10 8 9 7 8 11 7 7 13 10 8 13 13 11 14 13 13 13 12 13 12 10 11 11 11 11 12 13 13 13
17 15 17 17 17 16 16 17 17 16 16 15 15 15 15 14 14 14 12 10 8 7 6 9 8 8 7 9 9 9 12 14 12 14 11 11 14 12 11 11 10 10 10 11 11 11 12 13 13
16 15 17 16 17 17 16 15 14 16 16 15 14 14 15 15 14 14 12 9 8 8 6 8 7 10 7 7 9 9 9 11 13 12 11 11 11 10 10 10 9 10 11 12 11 11 11 14 13
15 15 16 17 17 17 16 16 16 16 16 14 13 14 15 15 13 12 12 9 9 8 6 7 7 7 7 8 9 10 10 10 11 12 11 11 10 10 10 10 10 10 10 11 12 11 11 12 13
13 15 16 17 17 16 16 16 16 16 15 14 13 13 14 15 12 12 11 11 11 11 8 7 6 7 7 9 9 10 10 10 10 12 11 11 10 9 9 11 12 12 12 11 12 13 12 11 11
15 16 14 14 14 15 15 15 16 16 15 13 13 13 14 14 12 12 12 14 13 12 10 9 6 6 7 9 9 10 10 10 10 10 11 11 11 11 10 10 11 12 13 14 12 12 12 11 12
16 17 14 13 13 13 13 15 16 15 16 13 13 14 14 13 12 12 14 12 11 8 9 8 6 6 7 9 9 11 10 9 10 10 10 11 11 11 12 12 11 13 14 14 13 13 13 12 13
16 16 15 13 13 13 13 15 15 15 15 15 13 13 13 13 12 12 13 11 10 9 8 7 6 6 7 9 10 11 11 11 13 11 10 9 10 11 12 13 14 14 13 13 13 13 13 13 12
15 15 14 14 14 14 13 13 15 15 15 14 13 14 13 13 13 12 12 10 9 9 8 6 5 5 7 9 10 11 10 11 12 12 13 11 10 12 12 13 13 14 13 13 12 13 12 12 12
11 12 12 12 11 11 13 12 14 15 14 13 13 13 14 13 13 13 12 11 10 9 8 6 4 5 7 9 11 11 12 12 12 12 11 13 13 14 13 14 14 14 14 13 12 12 11 11 10
9 7 6 7 10 10 10 15 15 14 13 12 12 13 14 13 14 12 11 11 10 9 8 6 4 4 6 8 13 13 14 13 13 13 13 14 14 14 14 13 14 14 13 12 11 12 11 10 10
4 5 9 8 8 9 10 13 16 14 13 12 12 12 13 13 13 12 12 12 11 10 9 7 4 3 5 7 12 13 14 14 14 13 13 13 13 13 14 14 13 13 13 12 12 11 10 11 11
1 10 10 10 8 9 10 15 16 15 14 14 12 12 12 12 14 14 12 12 11 10 10 9 5 4 4 6 11 13 13 14 14 14 13 13 14 13 14 14 13 12 12 12 12 10 11 12 12
5 5 8 9 7 10 11 13 16 15 15 14 14 13 13 13 13 14 13 12 12 11 10 8 6 4 4 8 12 13 13 14 14 14 14 14 14 14 13 14 14 12 12 12 12 11 11 12 11
3 6 7 7 5 11 11 14 16 15 15 15 15 14 14 13 14 14 13 12 13 13 12 10 8 4 5 10 11 13 13 14 13 13 13 14 13 13 12 13 15 12 12 13 13 12 11 11 10
1 0 4 4 5 7 9 11 16 15 15 15 15 15 14 14 14 15 14 14 14 13 12 12 12 5 6 7 10 12 12 13 14 14 13 14 14 13 13 13 13 13 12 13 14 13 12 12 11
1 1 0 4 2 4 6 9 15 15 15 15 15 15 15 14 14 14 15 15 15 14 13 12 12 7 8 9 11 12 13 14 14 14 13 14 14 13 13 13 13 14 14 13 14 13 12 11 11
1 -1 1 -0 3 6 5 10 14 16 16 15 15 15 15 15 15 15 14 14 14 13 14 13 12 10 11 11 11 12 12 13 13 14 13 13 13 13 14 14 13 13 14 13 14 13 12 12 11
-3 -2 -1 -0 2 2 3 6 7 15 17 16 14 15 15 15 15 15 14 13 14 13 13 14 13 12 11 11 12 12 12 12 12 13 13 13 13 13 13 13 13 13 13 15 14 15 12 12 10
-1 -1 -0 1 1 5 3 4 6 14 16 16 14 14 14 14 14 14 14 14 13 14 13 14 13 13 13 13 13 12 12 12 12 12 12 13 13 13 13 13 14 13 13 14 14 15 12 13 9
0 1 4 4 5 6 3 4 5 3 12 13 14 14 14 14 14 14 14 14 14 14 14 12 12 13 13 12 13 14 12 12 12 12 9 9 10 9 12 13 13 13 13 13 14 14 14 12 12
1 1 4 6 7 6 3 6 4 1 6 11 12 13 14 14 15 14 14 14 13 13 14 13 12 13 13 12 12 13 13 12 12 12 10 7 6 6 10 12 12 13 14 13 14 13 13 14 10
2 3 1 3 -0 4 4 1 -2 -1 2 9 10 11 13 13 14 15 14 14 13 13 13 13 12 12 12 12 12 12 12 12 12 12 12 11 6 7 11 12 13 13 13 15 14 13 13 14 14
2 0 3 3 7 4 3 -1 5 0 3 5 9 10 11 13 12 13 14 14 14 13 13 13 13 12 12 12 12 12 12 12 12 12 13 13 10 8 10 12 13 13 13 14 15 15 13 13 14
0 4 4 3 3 6 4 2 -2 -0 1 0 3 9 10 11 11 12 13 11 13 14 13 13 13 13 13 12 12 12 12 12 12 12 12 13 12 9 9 11 12 13 13 13 14 15 14 13 12
2 3 2 6 6 1 3 4 -5 -4 -3 -3 -3 1 1 8 11 11 11 12 13 13 13 13 13 13 13 13 13 13 13 12 12 13 12 13 13 11 9 10 12 12 13 14 14 14 15 14 13
Wind_Speed
15 15 14 7 1 1 2 3 1 3 2 3 20 6 5 5 2 3 27 32 31 29 24 22 23 21 21 20 19 18 18 17 17 16 15 15 15 15 14 13 13 13 10 11 11 10 10 11 13
15 17 11 5 1 2 1 1 3 5 4 16 14 12 6 3 4 17 37 33 33 30 26 24 22 22 21 20 19 18 18 17 16 16 16 16 15 14 15 14 13 12 11 11 12 11 13 15 16
16 13 2 1 1 2 1 2 5 2 8 19 7 8 3 3 6 40 35 36 35 30 27 26 22 22 21 20 18 19 18 17 17 16 15 15 15 15 14 13 12 12 11 10 11 13 13 14 14
12 5 3 2 3 2 3 4 6 3 4 10 14 8 5 1 25 30 38 37 35 29 28 26 22 22 21 19 17 18 19 18 16 16 16 17 16 16 16 14 12 13 12 10 11 12 13 13 12
8 3 2 2 1 1 5 4 8 5 6 8 7 5 7 15 21 36 37 37 34 30 27 26 22 21 20 18 16 18 20 17 16 17 18 19 18 17 16 15 15 14 12 10 12 13 13 12 13
2 1 0 1 2 2 2 2 3 6 7 5 10 10 4 16 28 37 37 37 32 30 28 25 22 20 18 17 17 18 17 17 17 19 20 19 17 16 16 15 14 13 13 12 12 13 13 13 13
2 2 2 1 1 4 2 4 1 2 7 5 20 5 10 18 37 35 37 35 32 28 27 25 23 19 17 16 17 17 17 17 18 19 20 18 17 16 17 15 15 14 14 14 12 11 12 11 14
2 2 1 2 1 4 4 4 4 6 4 20 13 8 13 31 41 38 35 34 31 28 26 24 22 20 17 16 17 17 17 17 18 18 18 17 16 16 15 14 16 16 15 14 13 10 10 9 11
3 1 3 5 1 6 11 8 5 6 12 7 12 11 30 39 40 39 35 33 30 27 26 24 22 20 17 16 17 16 15 15 16 17 16 14 14 14 15 13 14 12 13 14 14 12 9 10 11
4 2 5 4 6 5 7 13 14 7 14 3 10 17 41 45 42 41 39 35 33 29 28 24 22 20 17 17 17 16 16 15 15 15 15 13 12 12 13 13 11 9 10 12 11 10 10 9 10
6 4 3 6 9 8 10 8 11 12 8 13 27 40 48 49 44 42 39 38 36 31 29 26 23 20 18 17 17 16 15 15 16 14 14 13 10 10 11 11 10 9 8 9 9 8 7 6 6
4 11 9 5 11 3 3 8 6 17 4 17 27 48 57 51 48 45 42 39 36 33 30 26 23 21 18 18 17 16 15 13 12 13 13 12 10 9 8 10 7 9 8 6 7 9 7 5 4
9 7 7 13 17 16 13 9 7 15 2 13 34 48 51 49 46 43 41 38 35 32 30 27 25 22 20 19 17 16 16 16 15 14 12 11 10 8 8 5 5 9 7 7 11 9 8 6 4
8 15 17 15 19 13 7 5 11 7 14 25 44 43 41 43 46 42 40 38 35 32 30 28 25 23 21 19 20 18 16 16 14 11 13 9 8 7 7 6 6 5 7 5 7 7 8 7 10
10 5 5 9 7 6 10 4 4 23 22 34 37 39 38 41 43 45 42 38 35 32 30 29 26 24 22 21 20 20 17 14 13 12 12 9 7 8 9 6 6 6 8 7 6 9 11 9 11
4 3 1 4 7 7 10 3 5 27 31 32 35 35 35 38 43 43 41 37 35 32 31 29 27 25 24 23 22 20 16 13 11 12 12 9 7 7 7 7 7 8 8 8 7 11 11 10 7
4 4 7 3 8 3 6 1 10 23 25 27 33 35 35 35 37 42 42 40 37 33 31 31 29 27 26 26 24 20 16 12 12 14 13 10 7 6 9 7 8 7 8 9 7 9 8 5 4
7 4 4 5 3 7 6 1 13 25 27 29 29 33 34 36 41 42 41 40 37 35 31 30 30 28 27 28 25 22 18 14 15 15 14 11 6 7 7 6 7 8 8 6 9 7 5 3 3
4 4 6 4 6 5 8 7 16 23 21 25 29 32 35 39 36 38 41 40 38 36 34 32 32 31 31 31 29 26 22 17 15 15 14 13 9 7 7 5 6 7 7 6 7 7 3 7 7
7 2 4 5 2 4 5 10 12 18 28 36 35 33 35 33 35 38 43 42 41 38 38 35 32 34 33 34 31 29 24 20 16 13 13 14 11 8 7 5 5 7 7 4 6 7 6 7 8
12 8 5 1 4 2 4 5 6 14 15 23 25 31 31 36 37 40 43 46 44 42 40 37 34 36 34 34 33 30 27 23 21 19 16 13 13 11 9 7 7 8 6 6 5 6 8 9 8
9 14 14 5 1 3 2 5 6 8 17 19 24 32 33 36 37 40 45 47 48 46 42 39 37 37 35 33 33 31 30 29 27 24 21 17 13 13 11 10 7 8 7 7 6 5 7 10 9
12 8 11 11 5 1 5 1 7 10 11 16 24 32 35 39 42 42 49 54 50 48 46 43 40 39 38 37 36 34 32 30 28 27 25 23 19 15 13 12 10 8 10 9 8 7 9 9 10
4 1 3 3 4 8 11 10 6 7 12 18 19 30 33 36 41 43 45 42 50 48 49 48 45 42 41 39 38 39 36 33 30 30 31 28 26 22 18 15 14 11 10 11 9 9 9 11 12
10 10 2 3 5 12 8 12 9 8 9 14 22 36 41 41 41 45 44 45 48 48 51 49 50 47 44 43 41 39 40 37 31 27 29 32 31 29 25 20 17 14 11 11 11 11 10 13 13
14 11 6 8 4 14 6 7 6 20 12 27 31 41 35 32 37 41 44 48 53 52 51 51 51 52 47 44 41 39 39 40 35 30 25 28 29 28 22 21 18 15 12 12 12 13 13 11 16
6 14 11 4 1 1 9 4 8 3 13 12 24 26 30 36 40 42 46 48 52 54 54 54 51 50 51 48 43 42 40 41 40 34 28 25 27 26 24 19 18 17 15 13 14 15 15 15 14
11 9 8 3 6 5 4 6 8 8 9 10 8 20 27 37 38 41 45 47 51 55 56 54 52 50 50 49 47 45 43 41 41 38 32 28 27 27 26 23 20 19 18 17 17 17 16 17 17
6 11 4 7 7 6 1 6 8 11 14 14 14 26 32 35 42 46 50 52 52 50 51 55 54 53 52 51 49 48 46 44 43 42 36 31 28 27 28 24 22 21 21 21 22 21 19 19 19
3 4 5 9 12 4 4 6 4 10 11 13 21 28 34 37 46 50 52 48 48 50 50 52 53 54 52 51 49 48 46 45 45 44 39 33 30 29 29 27 26 26 24 23 23 22 21 20 20
Wind_Direction
154 155 152 149 200 233 235 261 89 103 161 188 142 156 160 46 133 184 149 154 154 149 146 144 136 136 128 127 124 125 126 126 129 131 133 135 138 137 137 130 126 119 116 99 104 106 100 105 111
155 152 165 190 200 238 237 310 312 174 88 141 125 103 77 92 115 141 150 155 156 151 148 148 140 135 132 132 130 132 128 127 128 127 130 132 132 131 134 133 127 115 111 104 102 105 109 104 105
154 156 257 128 290 251 299 67 349 32 117 148 107 95 73 97 155 149 154 155 159 152 150 147 142 137 135 128 126 130 125 124 124 127 125 124 127 126 131 127 122 114 113 112 110 117 114 116 111
157 206 222 213 227 325 79 316 348 220 146 167 131 78 72 122 154 153 154 157 158 152 151 149 145 141 138 132 133 132 128 123 123 122 123 121 121 121 125 123 117 113 112 112 120 126 114 116 108
165 236 231 286 177 106 139 274 303 213 161 120 124 109 97 137 151 153 155 159 159 154 154 151 148 144 140 134 137 133 128 122 123 122 121 117 116 119 116 112 110 107 104 102 125 129 119 115 111
169 357 230 214 149 144 159 220 0 70 106 135 96 114 115 156 158 154 157 158 160 156 156 153 151 146 142 140 136 135 132 126 125 122 121 119 117 115 110 107 107 102 92 87 112 126 119 118 121
183 151 240 180 333 117 238 197 188 313 141 133 141 95 135 159 161 158 158 159 160 159 158 156 153 148 144 142 140 136 134 134 132 129 124 121 118 112 111 109 107 103 95 88 100 120 121 114 112
214 173 259 168 139 90 245 185 304 213 114 137 156 159 170 168 164 159 160 161 162 163 161 158 157 153 149 145 142 139 137 139 137 134 131 128 122 117 113 107 99 95 90 89 95 110 114 106 108
189 24 255 158 130 122 204 201 176 148 142 159 185 166 167 164 163 161 162 164 165 166 167 163 162 158 152 148 145 142 141 142 142 140 136 133 126 123 124 116 104 93 89 86 89 101 114 110 109
169 171 242 190 140 149 208 214 158 147 162 96 142 156 161 165 166 165 167 167 170 170 171 168 166 161 155 153 152 148 144 141 141 142 142 140 135 131 126 121 115 98 93 96 97 97 97 104 112
190 213 225 205 164 161 175 181 171 147 194 188 157 158 163 167 170 170 171 171 173 172 174 170 169 164 159 159 156 151 147 145 142 145 147 151 150 142 132 130 123 115 112 101 104 121 116 110 113
236 225 252 256 216 155 155 170 194 176 216 213 182 172 166 171 174 175 176 174 175 176 176 171 171 166 162 163 157 152 154 157 161 154 148 152 160 157 148 143 136 124 130 133 129 122 124 156 119
227 260 252 249 257 274 272 221 200 189 226 168 170 165 167 172 176 179 180 180 179 179 178 175 173 168 166 164 159 155 156 153 149 153 148 144 154 155 166 174 144 139 129 122 146 142 124 112 147
221 238 275 282 273 273 253 197 155 146 157 152 163 166 171 174 179 182 184 184 186 183 181 178 176 171 171 168 163 154 152 148 148 143 159 147 159 156 157 146 156 162 167 152 162 153 139 111 126
254 316 322 256 241 241 181 125 203 160 164 152 164 169 174 180 183 188 187 190 189 188 185 183 179 175 176 174 170 164 160 156 155 152 142 147 152 152 150 144 159 155 157 140 146 142 147 150 139
170 130 15 281 190 224 159 235 147 162 154 158 166 176 180 186 190 193 192 192 191 192 192 187 185 181 180 179 172 172 171 173 170 163 156 154 156 169 165 168 141 141 144 137 126 139 148 148 137
356 191 213 292 197 170 178 177 160 165 161 165 171 179 187 191 196 200 199 198 194 193 195 193 192 187 184 185 187 184 184 194 199 192 183 176 173 170 171 176 176 155 164 147 145 153 145 140 105
198 193 229 194 245 178 188 199 168 175 169 173 179 184 191 196 201 201 204 201 200 198 197 197 196 193 189 187 187 192 198 199 193 194 194 189 167 177 177 184 175 164 157 158 151 155 166 167 158
197 198 221 219 214 141 207 175 183 186 177 177 185 193 196 200 201 203 208 208 204 205 201 199 200 197 195 192 196 199 202 197 200 203 200 200 186 172 187 192 193 180 157 163 162 168 170 181 164
252 260 248 295 206 161 222 224 189 184 195 189 186 195 202 199 200 203 207 212 209 206 205 203 206 201 200 200 202 207 206 205 208 214 207 203 202 195 192 203 211 205 203 197 205 201 203 179 185
229 225 230 236 351 262 161 278 160 205 198 202 205 199 202 201 201 203 208 211 213 211 209 206 206 203 201 202 206 212 212 214 218 220 217 211 206 213 218 218 231 235 222 230 214 214 203 207 210
217 218 244 249 328 212 207 260 222 174 199 199 199 204 201 205 206 207 209 212 214 216 214 212 208 207 205 208 211 215 217 218 222 228 232 231 224 220 222 231 244 239 231 227 231 217 210 218 229
235 161 210 237 205 254 251 242 265 166 197 205 204 209 210 205 207 208 214 215 215 219 220 219 216 215 214 217 220 222 223 226 230 231 233 234 237 235 230 231 242 240 234 235 240 232 222 225 216
176 19 116 104 140 239 219 215 256 191 203 211 206 212 216 210 210 213 217 215 217 218 223 224 221 220 220 221 224 228 229 230 232 233 234 236 239 241 238 234 235 242 238 232 238 239 230 216 215
174 164 265 219 205 236 200 213 229 240 203 201 200 209 214 211 210 212 213 212 217 218 223 223 223 223 222 225 229 230 231 231 234 236 237 235 239 242 240 237 234 236 241 234 241 239 233 224 225
196 182 163 197 214 231 154 213 234 230 217 212 213 212 211 210 211 214 215 216 217 218 220 223 224 225 223 225 228 231 232 233 233 236 238 237 240 239 236 230 232 233 238 239 241 237 233 234 229
198 208 181 115 217 228 209 246 304 223 234 200 215 211 205 206 209 213 219 219 220 219 221 222 223 224 225 224 226 230 232 233 233 235 237 239 239 235 230 228 228 230 236 242 243 243 238 237 240
220 160 193 198 198 223 269 194 211 193 230 228 225 210 211 210 213 209 212 215 224 223 222 226 225 225 225 226 227 229 232 234 235 236 237 238 237 234 230 229 226 229 234 239 246 248 242 242 243
210 210 208 175 191 204 161 259 194 194 201 214 223 212 216 207 210 212 211 221 223 222 223 226 228 228 228 228 229 231 234 236 236 237 238 239 238 236 230 226 225 230 234 240 246 248 245 244 245
222 255 211 207 212 249 128 246 173 195 203 218 231 216 227 223 215 221 220 210 211 220 221 223 227 230 232 231 231 232 234 237 238 238 239 238 239 235 234 231 229 231 232 239 245 243 242 243 246
Height
1503 1505 1508 1510 1516 1514 1511 1506 1498 1504 1504 1503 1506 1508 1512 1516 1516 1530 1525 1531 1535 1539 1543 1546 1549 1550 1552 1553 1555 1556 1557 1559 1560 1561 1563 1565 1566 1567 1568 1569 1569 1571 1571 1570 1571 1571 1571 1570 1571
1504 1506 1508 1505 1513 1517 1508 1502 1501 1501 1501 1503 1506 1510 1514 1519 1518 1520 1527 1533 1538 1541 1545 1548 1551 1552 1554 1556 1558 1559 1560 1562 1563 1564 1566 1567 1568 1570 1570 1571 1571 1573 1573 1573 1573 1573 1573 1573 1574
1505 1508 1507 1506 1510 1512 1507 1501 1502 1501 1502 1503 1508 1512 1515 1519 1520 1522 1527 1533 1540 1543 1547 1550 1553 1554 1556 1559 1560 1562 1563 1564 1565 1566 1568 1569 1570 1571 1572 1573 1574 1573 1574 1574 1575 1575 1575 1576 1577
1506 1509 1508 1509 1509 1500 1500 1499 1500 1502 1503 1505 1507 1515 1518 1519 1520 1524 1529 1535 1540 1545 1549 1552 1555 1557 1559 1561 1562 1564 1565 1566 1567 1569 1569 1571 1572 1573 1574 1575 1576 1576 1576 1576 1577 1577 1578 1578 1579
1507 1506 1507 1508 1504 1499 1499 1500 1499 1497 1501 1505 1507 1517 1520 1521 1523 1527 1531 1537 1542 1546 1550 1553 1557 1559 1561 1563 1564 1566 1568 1569 1570 1571 1572 1574 1575 1577 1577 1577 1578 1578 1578 1578 1579 1579 1581 1581 1582
1506 1506 1511 1513 1504 1497 1496 1499 1497 1495 1503 1507 1510 1516 1521 1523 1525 1530 1534 1539 1545 1547 1551 1555 1558 1561 1563 1564 1566 1568 1569 1571 1573 1575 1575 1576 1578 1579 1579 1580 1580 1580 1580 1580 1581 1582 1583 1584 1585
1505 1508 1506 1503 1502 1498 1494 1495 1496 1499 1503 1506 1509 1517 1522 1525 1528 1531 1536 1541 1546 1550 1553 1556 1559 1562 1564 1566 1568 1569 1571 1573 1575 1577 1578 1579 1580 1581 1582 1583 1583 1583 1583 1583 1583 1585 1586 1587 1588
1503 1504 1505 1502 1505 1502 1494 1495 1495 1499 1503 1506 1508 1513 1519 1521 1527 1533 1538 1542 1547 1551 1554 1557 1560 1563 1565 1567 1569 1571 1574 1576 1577 1579 1580 1581 1582 1584 1585 1585 1586 1586 1585 1586 1586 1588 1589 1590 1591
1503 1506 1507 1500 1500 1499 1494 1496 1498 1500 1501 1505 1508 1508 1514 1521 1527 1533 1539 1543 1547 1551 1555 1558 1561 1564 1567 1569 1571 1573 1576 1578 1580 1581 1582 1584 1585 1586 1587 1588 1588 1589 1588 1589 1590 1590 1592 1593 1594
1502 1508 1498 1489 1491 1499 1495 1496 1497 1500 1503 1506 1507 1510 1515 1522 1528 1531 1536 1540 1545 1550 1554 1558 1562 1565 1568 1570 1572 1574 1577 1579 1581 1583 1585 1586 1588 1589 1589 1591 1591 1591 1592 1592 1593 1593 1594 1595 1597
1498 1501 1491 1488 1489 1492 1492 1494 1495 1496 1502 1500 1502 1507 1513 1521 1528 1531 1536 1539 1543 1549 1553 1557 1562 1565 1568 1571 1573 1576 1578 1580 1582 1584 1586 1588 1590 1591 1592 1593 1593 1593 1594 1594 1595 1595 1596 1597 1598
1496 1491 1491 1487 1488 1488 1489 1491 1493 1494 1494 1495 1500 1503 1507 1517 1523 1527 1533 1537 1542 1547 1552 1557 1561 1565 1569 1572 1574 1577 1580 1582 1584 1585 1587 1589 1591 1592 1593 1595 1595 1595 1596 1596 1597 1597 1598 1599 1600
1492 1487 1488 1488 1487 1487 1489 1490 1491 1492 1493 1495 1501 1509 1511 1516 1523 1529 1534 1539 1543 1547 1551 1556 1561 1565 1569 1572 1575 1577 1580 1583 1585 1586 1588 1589 1592 1593 1595 1596 1596 1596 1597 1597 1598 1599 1600 1601 1601
1484 1486 1485 1486 1485 1486 1486 1487 1488 1494 1494 1497 1502 1509 1515 1519 1523 1529 1534 1538 1542 1547 1551 1556 1560 1565 1569 1573 1576 1578 1581 1583 1585 1587 1588 1590 1592 1594 1596 1597 1597 1597 1598 1598 1598 1600 1601 1602 1603
1485 1489 1486 1481 1481 1483 1482 1490 1488 1490 1493 1496 1505 1511 1515 1519 1524 1526 1531 1536 1542 1547 1551 1555 1560 1564 1568 1572 1576 1579 1582 1584 1586 1588 1589 1591 1593 1595 1597 1598 1597 1598 1599 1599 1599 1601 1602 1604 1604
1486 1489 1495 1478 1476 1478 1480 1491 1487 1488 1491 1497 1504 1511 1515 1519 1522 1526 1530 1535 1540 1546 1550 1555 1559 1563 1568 1572 1575 1579 1582 1585 1587 1588 1590 1591 1593 1595 1597 1598 1598 1599 1600 1601 1602 1602 1603 1605 1606
1492 1499 1492 1485 1473 1474 1479 1489 1487 1490 1494 1499 1502 1508 1513 1518 1522 1525 1528 1533 1537 1543 1549 1553 1558 1562 1567 1571 1575 1579 1581 1584 1587 1589 1590 1592 1593 1595 1597 1598 1599 1600 1601 1603 1604 1604 1605 1606 1607
1498 1495 1486 1484 1473 1474 1480 1483 1487 1488 1491 1495 1502 1506 1509 1514 1515 1522 1527 1532 1537 1541 1546 1551 1556 1561 1566 1570 1574 1577 1580 1583 1585 1588 1590 1592 1593 1595 1597 1598 1599 1600 1602 1603 1604 1605 1606 1607 1608
1484 1485 1483 1474 1471 1475 1478 1481 1485 1487 1491 1494 1498 1502 1504 1506 1515 1521 1524 1529 1534 1539 1542 1547 1552 1558 1562 1566 1570 1574 1578 1581 1584 1587 1589 1592 1593 1595 1596 1598 1599 1600 1602 1603 1604 1605 1606 1607 1608
1484 1486 1486 1475 1469 1473 1476 1477 1477 1481 1479 1480 1487 1496 1500 1507 1511 1516 1520 1525 1529 1534 1538 1543 1548 1554 1559 1564 1568 1572 1576 1580 1583 1586 1588 1590 1592 1594 1596 1597 1599 1601 1602 1604 1604 1605 1606 1607 1608
1486 1489 1487 1482 1474 1469 1473 1480 1478 1478 1482 1486 1489 1491 1497 1501 1505 1510 1515 1519 1524 1528 1533 1539 1544 1550 1556 1561 1565 1569 1574 1578 1580 1583 1586 1589 1591 1593 1595 1597 1599 1600 1601 1603 1603 1604 1606 1607 1608
1497 1477 1480 1484 1487 1499 1471 1501 1478 1473 1476 1478 1482 1485 1487 1493 1500 1504 1509 1513 1517 1522 1530 1536 1541 1546 1552 1558 1562 1566 1570 1573 1576 1580 1584 1587 1590 1592 1594 1595 1597 1599 1601 1602 1603 1603 1605 1606 1607
1473 1472 1479 1482 1488 1487 1481 1490 1476 1468 1477 1473 1473 1476 1480 1484 1491 1495 1498 1504 1513 1519 1524 1531 1537 1543 1548 1553 1558 1563 1566 1570 1574 1578 1581 1584 1587 1590 1592 1594 1596 1597 1599 1601 1602 1603 1604 1605 1606
1463 1469 1476 1482 1492 1502 1480 1481 1476 1470 1460 1462 1466 1470 1474 1479 1483 1490 1495 1504 1508 1515 1520 1526 1531 1536 1542 1547 1553 1557 1561 1566 1570 1574 1577 1581 1584 1587 1590 1592 1594 1596 1597 1600 1601 1601 1602 1604 1605
1463 1477 1505 1510 1507 1482 1467 1474 1466 1445 1445 1447 1452 1455 1459 1467 1476 1481 1487 1494 1500 1506 1511 1518 1524 1529 1535 1541 1547 1551 1556 1561 1565 1569 1572 1576 1579 1582 1586 1589 1592 1594 1595 1597 1599 1600 1601 1602 1604
1457 1469 1495 1511 1504 1476 1472 1476 1457 1435 1436 1439 1441 1442 1453 1464 1470 1476 1482 1486 1491 1497 1504 1510 1515 1522 1528 1534 1539 1545 1551 1555 1560 1564 1568 1571 1575 1578 1583 1586 1589 1591 1593 1595 1597 1598 1599 1600 1601
1455 1460 1458 1477 1480 1486 1455 1456 1440 1432 1433 1435 1436 1442 1449 1454 1459 1465 1473 1479 1486 1490 1494 1500 1508 1515 1521 1526 1533 1539 1544 1549 1554 1559 1564 1567 1571 1575 1580 1583 1585 1588 1591 1592 1594 1595 1597 1598 1599
1444 1441 1464 1474 1484 1490 1468 1457 1448 1439 1435 1432 1432 1435 1441 1446 1451 1457 1463 1469 1473 1480 1487 1494 1501 1507 1513 1520 1526 1532 1538 1543 1549 1554 1559 1563 1567 1572 1576 1579 1582 1584 1587 1589 1591 1593 1595 1595 1596
1442 1441 1441 1445 1462 1470 1479 1459 1426 1428 1424 1425 1424 1426 1430 1436 1441 1444 1449 1455 1461 1474 1480 1485 1492 1499 1506 1513 1519 1525 1531 1537 1543 1547 1554 1558 1563 1567 1571 1575 1578 1580 1582 1585 1587 1589 1591 1592 1593
1447 1447 1438 1439 1455 1461 1463 1449 1419 1416 1418 1418 1416 1417 1420 1424 1429 1433 1438 1447 1455 1459 1468 1475 1482 1489 1497 1504 1512 1518 1525 1531 1536 1541 1547 1553 1557 1562 1566 1569 1573 1575 1577 1579 1582 1585 1587 1589 1590